Temperature
19 18 17 16 15 15 15 15 14 14 14 14 14 14 13 13 12 12 12 11 11 12 12 12 13 13 13 13 13 13 13 13 14 14 14 14 14 14 14 13 13 13 13
20 19 17 16 15 15 15 15 14 14 14 14 14 13 12 12 12 12 12 11 11 12 12 13 13 13 13 13 13 13 13 14 14 14 14 14 14 13 13 13 13 13 13
20 19 17 16 15 15 15 15 14 14 14 14 13 12 12 12 12 12 12 12 12 13 13 13 13 13 13 13 13 13 13 14 14 14 14 13 13 13 13 13 13 13 12
20 20 18 16 15 15 15 15 15 15 15 14 13 12 12 12 12 12 12 13 13 14 14 14 14 14 13 13 13 13 13 14 14 14 13 13 13 13 13 12 12 12 12
20 20 18 16 16 15 15 15 15 15 15 15 14 13 12 12 12 12 13 13 14 14 15 15 15 14 14 13 13 13 13 13 14 14 14 13 13 13 12 11 11 11 12
20 20 19 17 16 15 15 15 15 15 15 15 15 14 13 12 12 13 13 13 13 14 14 14 14 14 14 13 13 13 13 13 14 14 14 14 13 13 12 11 11 11 12
20 19 19 18 17 16 15 15 15 15 15 15 15 14 13 13 13 13 13 13 13 14 14 14 14 14 14 14 14 14 14 14 14 14 14 14 14 13 13 12 11 11 11
20 19 19 18 17 16 16 15 15 15 15 15 15 14 14 13 13 13 13 13 14 14 14 14 14 14 14 14 14 14 14 14 14 14 14 14 14 14 14 13 13 13 13
19 19 19 18 18 17 16 16 15 15 15 15 15 15 14 14 14 13 14 14 14 14 14 14 14 14 14 14 14 14 14 14 14 14 14 14 14 14 13 13 13 13 13
19 19 19 19 18 18 17 16 16 15 15 15 15 15 15 14 14 13 14 14 14 14 14 14 14 14 14 14 14 14 14 14 13 14 13 13 13 13 13 13 12 12 12
19 19 19 19 18 18 17 16 16 16 15 15 15 15 14 14 14 14 14 14 14 14 14 14 14 14 14 14 13 13 13 13 13 13 13 13 12 12 12 12 12 12 12
20 20 19 19 18 18 17 17 16 16 16 15 15 14 14 14 14 14 13 13 14 14 14 14 13 13 13 13 13 13 13 13 13 12 12 12 12 12 12 12 12 12 12
21 20 20 19 18 18 17 17 16 16 15 15 14 14 14 13 13 13 13 13 13 13 13 13 13 13 13 13 13 13 12 12 12 12 12 12 12 12 12 12 12 12 12
21 20 20 19 19 18 17 16 16 15 15 14 14 14 13 13 13 13 13 13 13 13 12 12 12 12 12 12 12 12 12 12 12 12 12 12 12 12 12 12 11 11 11
21 21 20 19 19 18 17 16 15 15 15 14 14 14 13 13 13 13 13 12 12 12 12 12 12 12 12 12 12 12 12 12 12 12 12 12 12 12 11 11 11 11 11
21 21 20 19 18 17 17 16 15 15 14 14 14 13 13 13 13 13 12 12 12 12 12 12 12 12 12 12 12 12 12 12 12 12 12 12 11 11 11 11 10 10 10
21 21 20 19 18 17 16 16 15 14 14 14 14 13 13 13 13 12 12 12 12 12 11 12 12 12 12 12 12 12 12 12 11 11 11 11 10 10 10 10 10 10 10
20 20 19 18 17 17 16 15 15 14 14 14 14 13 13 13 12 12 12 12 11 11 12 12 12 12 12 11 11 11 11 11 11 10 10 9 9 9 9 10 10 10 10
19 18 18 18 17 16 16 15 15 14 14 14 14 13 13 12 12 12 11 11 11 11 11 11 11 11 10 10 10 10 10 10 10 9 9 9 9 9 9 9 9 9 9
18 18 17 17 17 16 16 15 14 14 14 13 13 13 12 12 12 11 12 11 11 11 11 10 10 9 9 9 9 9 9 9 9 9 8 8 8 8 8 8 8 8 8
17 17 17 17 16 16 15 15 14 14 13 13 13 12 12 12 11 11 11 11 11 10 10 9 8 8 8 7 7 7 8 8 8 7 7 7 7 7 7 6 6 6 6
17 16 16 16 15 15 15 14 14 13 13 12 12 12 12 11 11 11 11 10 10 9 8 8 7 7 6 6 5 5 5 6 6 6 6 6 6 6 6 5 5 5 5
16 15 15 14 14 14 14 14 13 13 12 12 11 11 11 11 11 10 10 10 9 8 7 6 6 6 5 5 4 4 3 2 2 4 3 4 4 4 4 4 4 3 3
15 14 14 13 13 13 13 13 13 13 12 12 11 11 11 10 10 10 9 9 8 7 6 5 5 5 4 4 4 3 2 1 0 0 1 3 3 3 2 2 2 2 1
14 13 13 13 13 13 13 13 13 12 12 12 11 11 10 10 9 9 8 8 7 6 5 5 4 4 4 3 3 3 2 1 0 -1 -2 -1 0 1 1 1 1 0 -1
12 12 12 12 12 12 12 12 12 12 12 11 11 10 9 9 9 8 8 7 6 5 4 4 4 3 3 3 2 2 1 -0 -1 -2 -3 -3 -3 -2 -2 -1 -1 -1 -2
Wind_Speed
7 12 22 20 19 18 17 16 15 13 11 11 10 9 9 10 10 8 7 6 6 6 6 7 8 7 7 8 8 7 6 5 4 4 5 6 5 5 4 1 1 2 1
13 16 22 20 19 18 17 16 15 13 11 11 11 10 9 9 8 7 7 7 6 5 5 5 6 7 6 6 6 5 4 2 1 3 5 6 7 8 8 5 3 3 2
16 17 21 21 20 19 18 16 15 13 12 11 10 10 9 9 9 9 8 7 6 4 4 3 4 5 5 5 4 3 2 1 1 4 7 7 9 9 9 8 6 5 5
16 17 19 20 20 19 18 16 15 13 11 10 10 9 9 9 9 8 8 7 5 4 3 3 3 3 3 3 2 1 0 2 3 6 8 9 10 9 6 9 7 7 7
12 16 18 21 20 19 18 16 15 13 11 10 9 9 8 8 9 9 8 7 5 4 3 2 2 1 1 1 2 3 4 5 5 6 8 10 9 10 8 9 8 8 8
11 14 18 21 20 19 18 17 15 13 11 10 9 8 6 6 8 10 9 8 6 4 3 1 0 1 2 4 5 6 7 8 6 6 8 10 10 11 11 10 9 9 10
11 12 18 21 20 19 18 17 15 13 11 10 9 8 5 4 7 10 10 8 6 4 2 1 2 3 4 5 6 7 8 8 7 7 8 9 10 13 13 12 12 11 11
13 11 16 20 20 19 18 17 16 14 12 10 9 8 6 5 8 10 10 9 7 5 4 3 4 5 6 7 8 9 10 10 10 8 9 10 13 14 14 15 14 14 14
11 9 10 15 17 19 18 18 16 14 12 11 10 8 7 6 8 9 10 9 8 7 6 5 6 7 8 9 10 11 12 12 11 10 11 11 14 15 15 16 16 15 15
10 11 10 11 13 14 16 17 17 15 14 12 11 10 9 8 8 8 9 9 9 8 8 8 8 9 10 11 12 13 14 13 12 11 11 13 16 16 16 17 17 16 16
9 9 11 10 10 13 14 16 16 16 15 13 11 11 10 8 7 7 9 11 11 11 10 10 10 10 11 12 14 14 13 11 11 10 11 15 17 17 18 18 18 17 17
12 12 10 12 11 10 12 12 12 13 13 12 11 10 9 8 7 8 11 14 14 13 12 11 11 11 11 10 11 12 10 11 10 10 12 17 18 19 19 19 18 18 19
12 13 13 13 12 10 7 8 8 9 10 11 11 11 9 7 5 5 5 7 9 9 8 8 8 8 7 7 7 8 8 8 7 9 11 16 17 18 19 19 18 18 19
9 12 14 14 12 11 8 7 7 6 6 6 9 10 7 3 2 2 2 2 3 4 4 4 4 5 6 6 6 5 6 5 5 7 9 12 14 16 18 18 19 18 18
12 13 13 14 14 12 10 8 7 6 5 7 7 8 8 4 3 2 2 2 2 2 2 2 3 3 4 5 6 5 5 6 7 8 9 13 16 17 17 18 17 18 18
7 11 10 11 12 12 10 8 7 5 6 6 5 7 9 7 4 4 4 4 4 6 6 5 5 5 5 5 7 6 6 7 8 10 11 12 14 16 17 18 19 19 19
4 6 8 9 10 11 10 8 6 4 6 5 7 9 11 10 9 6 6 6 5 8 8 7 7 5 6 7 7 8 6 6 7 8 9 10 11 14 18 20 21 21 21
5 5 6 7 9 10 8 8 7 7 8 8 10 12 14 14 13 8 7 6 7 9 6 5 6 5 6 6 6 6 6 6 6 6 7 8 10 11 15 20 22 22 22
5 6 6 8 10 11 12 11 11 9 9 9 11 11 13 14 14 10 6 5 8 6 6 5 5 4 5 7 7 6 7 6 5 4 5 6 8 10 12 18 22 23 23
6 6 8 10 13 15 13 12 11 11 9 9 10 11 13 13 14 11 6 7 7 6 6 5 5 5 3 6 6 7 7 5 2 3 6 5 7 12 14 17 17 20 23
7 8 9 12 12 13 11 9 9 7 7 8 8 12 14 14 14 10 6 6 6 6 6 6 5 5 4 5 4 5 6 5 4 4 7 6 7 10 14 17 17 16 15
8 10 11 12 10 10 9 8 7 7 7 7 6 10 14 14 12 10 7 6 6 6 7 7 6 4 4 4 3 3 5 6 5 8 6 5 7 7 10 13 14 13 14
10 11 12 11 12 13 13 13 12 8 6 5 7 6 8 12 12 11 8 6 6 6 5 5 5 4 4 3 3 3 3 4 6 4 4 4 6 8 7 6 9 12 16
10 10 12 13 13 12 12 13 14 10 7 5 5 6 7 10 11 11 9 7 5 5 5 4 4 3 3 3 3 2 2 4 4 6 5 5 7 8 8 10 8 9 13
11 11 12 13 12 10 10 11 12 10 8 7 7 8 7 6 8 8 8 6 5 4 4 4 4 4 3 2 3 3 3 3 5 5 9 8 8 7 7 8 7 7 10
11 11 12 13 12 11 11 11 12 13 11 10 8 7 5 4 5 6 6 5 4 4 4 4 4 5 4 4 4 3 3 3 5 5 9 14 11 8 8 8 8 8 8
Wind_Direction
164 167 161 159 156 152 147 142 136 131 129 128 127 125 126 127 123 116 112 105 96 85 69 62 55 66 89 109 113 108 99 86 61 27 2 344 329 309 290 256 294 323 275
157 167 163 163 159 156 152 147 143 139 137 136 135 132 129 129 124 117 112 108 99 90 71 58 55 60 78 101 114 119 115 102 59 349 335 328 315 296 264 246 243 262 261
154 166 165 166 163 160 156 153 150 147 145 144 142 141 138 136 133 123 117 110 102 92 81 68 60 65 74 92 109 122 126 123 327 318 325 326 318 304 246 235 242 250 254
157 165 168 169 167 164 161 159 156 154 154 153 152 151 150 148 145 136 132 122 111 103 94 83 74 73 76 83 88 91 307 309 317 315 324 325 324 316 242 229 242 253 253
156 165 171 170 169 167 166 164 162 161 160 160 160 158 156 160 160 155 148 139 129 119 109 94 75 57 2 321 306 297 294 299 307 312 317 318 319 313 271 247 254 265 264
159 165 172 172 172 171 170 169 168 166 166 166 168 168 169 171 177 170 159 152 145 135 127 116 27 326 306 298 295 293 294 300 307 298 298 302 305 304 289 271 261 266 267
163 170 173 175 175 174 174 173 172 171 170 169 172 176 184 187 183 170 168 166 165 166 175 227 285 290 287 286 288 288 287 288 284 274 277 286 294 296 288 279 274 272 270
164 168 175 177 176 176 177 177 175 175 174 173 174 174 166 153 161 166 175 180 188 202 226 256 275 282 284 285 286 286 287 282 279 271 272 277 283 286 281 279 279 276 275
163 163 171 176 176 177 177 177 177 177 177 176 176 174 164 156 165 177 188 198 210 227 244 258 270 276 280 281 283 283 283 281 275 266 272 275 281 283 280 277 275 272 270
165 169 171 173 175 176 177 178 180 180 180 180 182 179 176 180 190 202 210 218 229 242 251 260 268 273 277 280 281 280 281 283 273 266 265 270 276 279 279 276 274 272 269
180 181 177 175 177 177 177 183 183 184 186 187 190 193 193 201 217 234 234 234 239 246 252 261 269 274 277 279 281 282 286 276 270 266 265 268 275 279 279 277 274 271 269
193 194 185 183 183 179 183 183 185 188 192 194 198 204 206 211 226 244 242 236 238 244 254 267 276 282 283 282 286 290 284 279 275 269 269 275 282 287 288 287 281 275 271
197 192 191 188 186 181 182 176 184 191 195 202 206 212 213 216 235 246 242 243 248 258 268 281 291 295 292 288 288 289 285 282 275 274 279 287 295 301 305 306 301 293 286
205 197 191 190 186 184 180 179 183 188 195 202 209 213 202 185 190 200 208 248 263 277 288 295 302 312 321 320 315 311 310 304 298 297 299 308 318 325 324 319 314 309 303
207 204 189 185 186 183 179 181 182 188 193 198 195 190 176 154 153 133 93 56 21 7 2 3 358 1 2 359 360 351 339 337 337 338 334 336 341 344 344 338 332 327 324
205 204 188 179 180 175 175 175 177 180 175 164 153 149 144 129 112 94 71 54 41 40 44 44 31 26 18 7 359 349 342 344 344 345 345 351 358 6 12 11 7 2 355
160 175 173 172 167 165 166 163 151 137 130 116 107 104 103 99 90 81 69 55 42 43 45 44 28 28 21 8 351 341 339 341 343 344 353 7 9 13 17 14 9 5 359
140 135 150 154 147 146 135 120 108 101 97 94 92 87 85 85 85 78 69 57 50 48 39 40 24 18 14 359 339 327 329 333 339 351 7 13 10 13 13 9 6 1 355
151 144 131 128 128 121 110 103 97 92 90 91 88 85 82 81 81 80 70 56 55 50 36 32 29 22 8 351 328 318 318 323 330 7 7 6 6 10 11 5 2 356 350
133 130 123 119 120 118 111 104 97 88 85 83 83 83 80 77 76 75 66 50 50 48 34 23 17 13 9 344 326 317 305 310 326 6 1 360 4 6 7 2 356 348 345
116 116 120 124 126 124 122 116 110 102 95 86 80 77 76 73 69 65 60 48 45 50 39 25 10 5 355 349 343 320 316 328 350 338 352 356 359 1 358 352 345 336 338
124 119 120 124 120 119 117 112 110 112 98 88 80 71 70 68 65 65 59 56 48 46 36 29 24 9 348 5 349 329 335 333 342 334 319 343 352 351 337 335 327 327 333
130 129 128 123 119 119 118 115 113 103 89 80 75 70 65 70 67 64 61 60 51 48 34 21 25 25 347 333 356 41 3 314 311 297 313 331 338 320 315 320 313 321 321
135 126 125 124 123 122 123 129 130 127 121 115 108 93 73 69 67 62 59 58 49 41 29 7 22 2 353 339 334 29 240 249 290 307 303 302 305 306 299 305 304 301 305
132 126 124 121 118 114 112 119 117 113 112 113 105 95 79 63 60 59 57 50 38 26 15 4 355 350 338 324 319 308 292 264 238 268 297 306 305 295 292 288 287 287 294
126 122 123 120 114 112 111 110 118 121 123 120 114 107 90 72 52 44 50 41 27 11 356 346 339 339 330 324 316 307 304 299 305 292 300 308 304 294 285 283 286 286 288
Height
1501 1502 1503 1504 1506 1506 1507 1507 1507 1507 1507 1506 1505 1505 1506 1507 1507 1507 1507 1507 1506 1506 1507 1507 1508 1508 1508 1508 1508 1508 1508 1507 1506 1506 1505 1504 1503 1503 1503 1503 1503 1504 1504
1500 1501 1502 1504 1505 1506 1506 1506 1506 1506 1505 1505 1504 1504 1505 1506 1507 1507 1507 1507 1506 1506 1506 1506 1506 1507 1507 1507 1507 1507 1506 1506 1505 1504 1504 1503 1502 1502 1502 1502 1502 1503 1503
1499 1500 1501 1503 1504 1505 1505 1506 1505 1505 1505 1504 1504 1504 1505 1505 1506 1506 1506 1506 1506 1505 1505 1505 1505 1506 1506 1506 1506 1505 1505 1505 1504 1504 1503 1502 1501 1501 1501 1501 1501 1502 1502
1499 1499 1501 1502 1504 1504 1505 1505 1505 1505 1504 1504 1503 1504 1505 1505 1506 1506 1506 1506 1506 1505 1504 1504 1504 1505 1505 1505 1505 1504 1504 1504 1503 1502 1502 1501 1500 1500 1500 1500 1500 1500 1501
1498 1499 1500 1502 1503 1504 1504 1504 1504 1504 1504 1503 1503 1503 1504 1505 1505 1506 1506 1506 1505 1505 1504 1504 1504 1504 1504 1504 1504 1503 1503 1502 1501 1501 1500 1499 1499 1498 1498 1499 1499 1499 1499
1498 1499 1500 1501 1502 1503 1503 1504 1504 1504 1504 1503 1503 1503 1504 1505 1505 1505 1506 1506 1505 1504 1504 1503 1503 1503 1503 1503 1502 1502 1501 1501 1500 1499 1499 1498 1497 1497 1497 1497 1497 1497 1497
1498 1499 1499 1501 1502 1502 1503 1503 1503 1503 1503 1503 1503 1503 1504 1504 1505 1505 1506 1506 1505 1504 1504 1503 1503 1503 1502 1502 1502 1501 1501 1500 1500 1499 1498 1497 1496 1495 1495 1495 1495 1495 1495
1498 1498 1499 1500 1501 1502 1502 1503 1503 1503 1503 1503 1503 1503 1504 1504 1505 1505 1506 1505 1505 1505 1504 1504 1503 1503 1503 1502 1502 1501 1501 1500 1499 1498 1497 1496 1495 1494 1493 1493 1493 1493 1492
1497 1498 1498 1499 1500 1501 1501 1502 1502 1502 1502 1502 1502 1503 1503 1504 1505 1505 1505 1505 1505 1505 1504 1504 1504 1503 1503 1502 1502 1501 1501 1500 1499 1498 1496 1495 1494 1493 1492 1491 1491 1490 1490
1496 1497 1498 1498 1498 1499 1500 1501 1501 1502 1502 1502 1502 1502 1503 1503 1504 1505 1505 1505 1505 1505 1505 1504 1504 1503 1503 1502 1501 1501 1500 1499 1497 1496 1495 1494 1492 1491 1490 1489 1488 1488 1487
1495 1496 1496 1497 1497 1498 1499 1500 1500 1501 1501 1501 1502 1502 1503 1503 1504 1505 1505 1505 1505 1505 1504 1504 1503 1503 1502 1501 1500 1499 1498 1497 1495 1494 1493 1491 1490 1488 1487 1486 1485 1484 1483
1492 1493 1494 1495 1496 1497 1497 1498 1499 1500 1500 1501 1502 1502 1503 1503 1504 1505 1505 1505 1504 1504 1504 1503 1502 1502 1500 1499 1498 1497 1495 1494 1492 1491 1489 1488 1486 1485 1484 1483 1482 1480 1479
1490 1491 1492 1493 1494 1495 1496 1497 1498 1499 1500 1500 1501 1502 1503 1503 1504 1504 1504 1504 1504 1503 1503 1502 1501 1500 1499 1497 1496 1494 1493 1491 1489 1488 1486 1484 1483 1481 1480 1479 1477 1476 1475
1488 1488 1489 1490 1491 1492 1494 1495 1497 1498 1499 1500 1501 1501 1502 1503 1503 1503 1504 1504 1503 1502 1501 1500 1499 1498 1496 1495 1493 1491 1490 1488 1486 1485 1483 1481 1479 1477 1475 1474 1472 1471 1470
1484 1484 1485 1487 1488 1490 1492 1494 1496 1497 1498 1499 1500 1501 1502 1502 1503 1503 1503 1503 1502 1501 1499 1498 1497 1496 1494 1493 1491 1489 1487 1485 1483 1481 1479 1477 1475 1472 1470 1469 1467 1466 1465
1480 1481 1482 1484 1486 1488 1489 1492 1494 1496 1497 1498 1499 1500 1501 1502 1502 1502 1502 1501 1500 1499 1498 1497 1495 1493 1492 1490 1488 1486 1484 1482 1480 1477 1475 1472 1470 1468 1466 1464 1462 1461 1459
1475 1476 1478 1481 1483 1485 1488 1491 1493 1494 1496 1497 1498 1499 1500 1501 1501 1501 1501 1500 1499 1498 1497 1495 1493 1491 1489 1487 1484 1482 1480 1478 1475 1472 1470 1468 1466 1464 1462 1460 1458 1457 1455
1472 1472 1474 1477 1480 1483 1486 1489 1490 1492 1494 1495 1497 1498 1499 1499 1500 1500 1499 1499 1498 1497 1495 1493 1491 1488 1485 1482 1480 1477 1475 1473 1470 1468 1466 1464 1462 1460 1458 1456 1454 1452 1450
1468 1469 1471 1473 1477 1480 1483 1485 1488 1490 1492 1494 1495 1497 1498 1498 1499 1499 1498 1497 1496 1495 1493 1490 1487 1484 1481 1478 1475 1473 1470 1468 1465 1464 1462 1461 1459 1457 1454 1451 1449 1446 1444
1463 1465 1467 1470 1473 1476 1479 1482 1486 1489 1491 1493 1494 1495 1496 1497 1498 1498 1497 1496 1494 1492 1490 1487 1484 1480 1477 1473 1471 1468 1465 1463 1461 1460 1459 1457 1455 1452 1449 1446 1443 1440 1437
1460 1461 1463 1465 1468 1471 1475 1479 1483 1487 1490 1491 1493 1494 1495 1496 1497 1496 1495 1494 1492 1489 1486 1483 1480 1477 1474 1469 1466 1461 1460 1459 1456 1456 1455 1453 1450 1447 1443 1440 1437 1433 1430
1456 1458 1460 1462 1466 1470 1474 1478 1482 1485 1488 1490 1492 1493 1494 1495 1495 1495 1493 1492 1489 1486 1483 1480 1477 1474 1471 1467 1463 1458 1455 1453 1452 1451 1448 1445 1443 1440 1437 1433 1430 1427 1423
1454 1456 1458 1461 1465 1469 1473 1477 1481 1484 1486 1489 1491 1492 1493 1494 1494 1493 1491 1489 1487 1484 1481 1478 1475 1472 1469 1466 1463 1461 1456 1451 1445 1441 1440 1437 1435 1432 1429 1426 1423 1420 1416
1451 1455 1458 1461 1465 1469 1472 1476 1478 1481 1484 1487 1489 1491 1492 1492 1492 1491 1489 1487 1484 1481 1479 1476 1473 1470 1467 1464 1461 1459 1457 1453 1447 1437 1432 1430 1428 1424 1422 1419 1416 1413 1409
1450 1453 1457 1461 1465 1468 1472 1475 1478 1481 1483 1486 1488 1490 1490 1490 1490 1488 1486 1484 1481 1479 1476 1474 1471 1468 1465 1461 1458 1455 1452 1449 1445 1439 1427 1421 1419 1417 1414 1412 1408 1405 1402
1448 1452 1456 1460 1463 1468 1471 1475 1478 1480 1483 1485 1487 1488 1489 1488 1487 1486 1484 1481 1479 1476 1474 1471 1468 1465 1462 1459 1455 1451 1448 1444 1440 1434 1425 1416 1411 1408 1406 1404 1401 1398 1395